Coolangatta Observation History
Time Wind Speed Temp Pressure Rel. Hum Rain
24/08:30am N 14-16 kts 27.1°c 1012.5 hPa 76% 0.0mm
24/08:00am N 13-16 kts 26.2°c 1012.6 hPa 79% 0.0mm
24/07:30am N 11-14 kts 26.5°c 1012.6 hPa 80% 0.0mm
24/07:00am N 12-15 kts 25.6°c 1012.4 hPa 81% 0.0mm
24/06:30am N 11-16 kts 26.0°c 1012.2 hPa 83% 0.0mm
24/06:00am N 11-14 kts 24.5°c 1011.7 hPa 87% 0.0mm
24/05:30am N 11-14 kts 24.2°c 1011.4 hPa 91% 0.0mm
24/05:00am N 12-15 kts 23.9°c 1010.7 hPa 91% 0.0mm
24/04:30am N 13-17 kts 23.9°c 1010.3 hPa 90% 0.0mm
24/04:00am N 14-17 kts 23.6°c 1010.0 hPa 91% 0.0mm
24/03:30am N 13-17 kts 23.7°c 1009.8 hPa 89% 0.0mm
24/03:00am N 11-15 kts 23.6°c 1010.1 hPa 89% 0.0mm
24/02:30am N 12-15 kts 24.0°c 1010.5 hPa 88% 0.0mm
24/02:00am N 11-14 kts 24.2°c 1011.0 hPa 88% 0.0mm
24/01:30am N 11-14 kts 24.4°c 1011.4 hPa 87% 0.0mm
24/01:00am N 12-15 kts 24.4°c 1011.6 hPa 86% 0.0mm
24/12:30am N 13-17 kts 24.8°c 1011.5 hPa 86% 0.0mm
24/12:00am N 13-17 kts 25.4°c 1011.6 hPa 84% 0.0mm
Time Wind Speed Temp Pressure Rel. Hum Rain
23/11:30pm N 15-18 kts 25.1°c 1011.5 hPa 87% 0.0mm
23/11:00pm N 12-15 kts 24.4°c 1011.4 hPa 88% 0.0mm
23/10:30pm N 12-15 kts 24.6°c 1011.5 hPa 88% 0.0mm
23/10:00pm N 13-17 kts 25.0°c 1011.8 hPa 87% 0.0mm
23/09:30pm N 12-15 kts 25.1°c 1011.9 hPa 87% 0.0mm
23/09:00pm N 9-12 kts 24.8°c 1012.0 hPa 87% 0.0mm
23/08:30pm N 11-15 kts 25.2°c 1011.7 hPa 86% 0.0mm
23/08:00pm N 11-14 kts 25.3°c 1011.3 hPa 86% 0.0mm
23/07:30pm N 13-17 kts 25.3°c 1010.9 hPa 85% 0.0mm
23/07:00pm N 12-16 kts 25.4°c 1011.0 hPa 84% 0.0mm
23/06:30pm N 11-14 kts 25.5°c 1010.9 hPa 84% 0.0mm
23/06:00pm N 12-15 kts 25.7°c 1010.3 hPa 84% 0.0mm
23/05:30pm N 15-21 kts 26.3°c 1009.6 hPa 81% 0.0mm
23/05:00pm N 17-21 kts 26.8°c 1009.1 hPa 78% 0.0mm
23/04:30pm N 18-23 kts 27.4°c 1009.4 hPa 76% 0.0mm
23/04:00pm N 18-21 kts 27.7°c 1009.4 hPa 76% 0.0mm
23/03:30pm N 17-23 kts 28.1°c 1009.5 hPa 76% 0.0mm
23/03:00pm N 19-25 kts 27.9°c 1009.5 hPa 74% 0.0mm
23/02:30pm N 19-25 kts 27.8°c 1009.8 hPa 73% 0.0mm
23/02:00pm N 17-22 kts 27.9°c 1010.1 hPa 74% 0.0mm
23/01:30pm N 18-25 kts 28.8°c 1010.4 hPa 73% 0.0mm
23/01:00pm N 18-24 kts 27.1°c 1010.9 hPa 79% 0.0mm
23/12:30pm N 17-24 kts 27.8°c 1011.2 hPa 77% 0.0mm
23/12:00pm N 19-25 kts 27.7°c 1011.4 hPa 76% 0.0mm
23/11:30am N 19-24 kts 27.4°c 1011.9 hPa 77% 0.0mm
23/11:00am N 17-22 kts 26.9°c 1012.3 hPa 79% 0.0mm
23/10:30am N 15-21 kts 27.6°c 1012.6 hPa 76% 0.0mm
23/10:00am N 14-18 kts 25.7°c 1012.9 hPa 83% 0.0mm
23/09:30am N 14-18 kts 25.6°c 1012.7 hPa 84% 0.0mm
23/09:00am N 13-17 kts 25.4°c 1013.0 hPa 85% 0.0mm
23/08:30am N 13-19 kts 25.4°c 1013.2 hPa 86% 0.0mm
23/08:00am N 13-16 kts 25.0°c 1013.1 hPa 87% 0.0mm
23/07:43am N 14-18 kts 25.3°c 1013.1 hPa 87% 0.0mm
23/07:30am N 14-18 kts 25.5°c 1013.0 hPa 88% 0.0mm
23/07:15am N 13-18 kts 25.2°c 1012.8 hPa 89% 0.0mm
23/07:00am N 12-16 kts 24.9°c 1012.8 hPa 91% 0.0mm
23/06:30am N 12-16 kts 24.4°c 1012.3 hPa 93% 0.0mm
23/06:00am N 11-14 kts 24.1°c 1012.2 hPa 94% 0.0mm
23/05:30am N 9-11 kts 23.9°c 1011.8 hPa 94% 0.0mm
23/05:00am N 11-14 kts 23.6°c 1011.7 hPa 94% 0.0mm
23/04:30am N 13-17 kts 23.9°c 1011.3 hPa 94% 0.0mm
23/04:00am N 11-14 kts 24.0°c 1011.1 hPa 94% 0.0mm
23/03:30am N 11-15 kts 24.1°c 1010.9 hPa 94% 0.0mm
23/03:18am N 9-12 kts 24.0°c 1010.9 hPa 95% 0.0mm
23/03:00am N 9-12 kts 23.7°c 1010.7 hPa 94% 0.0mm
23/02:57am N 10-12 kts 23.6°c 1010.7 hPa 94% 0.0mm
23/02:30am N 10-13 kts 23.8°c 1010.9 hPa 95% 0.0mm
23/02:00am N 12-16 kts 23.9°c 1010.8 hPa 94% 0.0mm
23/01:30am N 13-17 kts 24.4°c 1011.3 hPa 95% 0.0mm
23/01:00am N 11-15 kts 24.2°c 1011.4 hPa 94% 0.0mm
23/12:30am N 11-15 kts 24.4°c 1011.5 hPa 95% 0.0mm
23/12:00am N 12-15 kts 24.2°c 1011.8 hPa 93% 0.0mm
Time Wind Speed Temp Pressure Rel. Hum Rain
22/11:30pm N 15-19 kts 24.6°c 1012.2 hPa 93% 0.0mm
22/11:00pm N 15-19 kts 24.8°c 1012.4 hPa 93% 0.0mm
22/10:30pm N 14-18 kts 24.8°c 1012.7 hPa 93% 0.0mm
22/10:00pm N 14-18 kts 25.1°c 1012.5 hPa 91% 0.0mm
22/09:30pm N 12-16 kts 25.1°c 1012.3 hPa 91% 0.0mm
22/09:00pm N 11-14 kts 24.9°c 1012.3 hPa 92% 0.0mm
22/08:30pm N 14-19 kts 25.7°c 1012.1 hPa 91% 0.0mm
22/08:00pm N 14-18 kts 25.6°c 1011.5 hPa 91% 0.0mm
22/07:59pm N 14-18 kts 25.6°c 1011.4 hPa 91% 0.0mm
22/07:30pm N 14-18 kts 25.8°c 1010.6 hPa 90% 0.0mm
22/07:00pm N 11-15 kts 25.8°c 1010.9 hPa 91% 0.0mm
22/06:32pm N 15-18 kts 26.0°c 1010.3 hPa 89% 0.0mm
22/06:30pm N 14-18 kts 26.0°c 1010.3 hPa 89% 0.0mm
22/06:00pm N 11-15 kts 25.9°c 1009.6 hPa 88% 0.0mm
22/05:30pm N 11-14 kts 26.0°c 1009.1 hPa 86% 0.0mm
22/05:00pm N 10-13 kts 26.3°c 1008.9 hPa 85% 0.0mm
22/04:30pm N 10-12 kts 26.6°c 1009.1 hPa 84% 0.0mm
22/04:00pm N 13-17 kts 27.1°c 1008.8 hPa 82% 0.0mm
22/03:30pm N 13-18 kts 27.9°c 1008.7 hPa 80% 0.0mm
22/03:00pm N 14-20 kts 27.9°c 1009.2 hPa 78% 0.0mm
22/02:30pm N 15-19 kts 28.9°c 1009.6 hPa 75% 0.0mm
22/02:00pm N 15-19 kts 28.2°c 1010.0 hPa 78% 0.0mm
22/01:30pm N 15-20 kts 28.1°c 1010.3 hPa 74% 0.0mm
22/01:00pm NNE 15-20 kts 27.7°c 1010.3 hPa 76% 0.0mm
22/12:30pm NNE 15-20 kts 28.9°c 1010.6 hPa 72% 0.0mm
22/12:00pm N 15-18 kts 28.3°c 1011.0 hPa 72% 0.0mm
22/11:30am N 14-18 kts 28.5°c 1011.4 hPa 69% 0.0mm
22/11:00am N 15-19 kts 28.1°c 1011.4 hPa 68% 0.0mm
22/10:30am NNE 14-17 kts 28.6°c 1011.7 hPa 67% 0.0mm
22/10:00am N 13-16 kts 28.8°c 1012.0 hPa 66% 0.0mm
22/09:30am N 12-15 kts 27.9°c 1011.9 hPa 67% 0.0mm
22/09:00am N 12-14 kts 27.8°c 1012.0 hPa 67% 0.2mm
22/08:30am N 9-10 kts 27.1°c 1012.0 hPa 69% 0.2mm
22/08:00am N 8-10 kts 26.7°c 1012.0 hPa 70% 0.2mm
22/07:30am N 8-11 kts 26.4°c 1011.9 hPa 70% 0.2mm
22/07:00am N 5-7 kts 26.2°c 1011.6 hPa 74% 0.2mm
22/06:30am N 5-6 kts 24.8°c 1011.2 hPa 79% 0.2mm
22/06:00am N 5-8 kts 24.0°c 1010.5 hPa 83% 0.2mm
22/05:30am N 9-11 kts 23.1°c 1009.9 hPa 89% 0.2mm
22/05:00am N 12-16 kts 23.0°c 1009.3 hPa 90% 0.2mm
22/04:30am N 10-13 kts 23.0°c 1009.0 hPa 92% 0.2mm
22/04:00am N 8-10 kts 23.1°c 1008.4 hPa 93% 0.2mm
22/03:30am N 3-13 kts 23.3°c 1008.3 hPa 89% 0.2mm
22/03:00am N 9-10 kts 23.3°c 1008.1 hPa 88% 0.2mm
22/02:30am N 9-10 kts 23.5°c 1008.2 hPa 89% 0.2mm
22/02:00am N 8-10 kts 23.3°c 1008.2 hPa 88% 0.2mm
22/01:30am N 8-9 kts 23.5°c 1008.6 hPa 87% 0.2mm
22/01:00am N 7-9 kts 24.3°c 1008.7 hPa 84% 0.2mm
22/12:30am N 6-8 kts 24.5°c 1009.2 hPa 84% 0.2mm
22/12:00am N 5-7 kts 23.9°c 1009.7 hPa 90% 0.2mm